Location: Czekanka
(50.4925°N, 19.2643°E)
Time: 01:55:33
(UTC+00:00)

ARIANE 6 FM1 Upper Stage - Pass Details

Date: 23 August 2024
Orbit: 566 x 594 km, 62.0° (Epoch: 15 September)

Event Time Altitude Azimuth Distance (km) Brightness Sun altitude
Exits shadow 01:51:38 - 161° (SSE) 2,541 5.8 -16.1°
Reaches altitude 10° 01:54:30 10° 133° (SE) 1,902 5.4 -15.8°
Maximum altitude 01:55:56 12° 114° (ESE) 1,808 5.6 -15.6°
Drops below altitude 10° 01:57:24 10° 94° (E) 1,914 6.0 -15.5°
Sets 02:01:07 0° 61° (ENE) 2,829 8.0 -15.0°
